Date String (YYYY-MM-DD hh:mm:ss) UTC,Instrument flags,absolute air pressure of the measurement (hPa),sample flow rate (lpm),inlet stack bypass flow (lpm),air temperature of the measurement (°C),ambient temperature measured by the external sensor (°C),aerosol sample conditioner tube jacket temperature (°C),OPC LED temperature (°C),internal box temperature (°C),relative humidity of the measurement (%),span deviation,mass concentration of particles derived from Lorenz-Mie calculation of OPC scattering (μg/m³),mass concentration of particles derived from Lorenz-Mie calculation of OPC scattering (μg/m³),mass concentration of particles derived from Lorenz-Mie calculation of OPC scattering (μg/m³)
DateTimeUTC,F1_M11,P_M11,Q1_M11,Q2_M11,T1_M11,T2_M11,T3_M11,T4_M11,T5_M11,U1_M11,ZSPAN_M11,X0_M11,X2_M11,X1_M11
2023-07-20 07:00:00,SystemResetWarning,0837.8,5.01,000.00,030.9,026.4,000.0,038.9,031.1,34.6,0000.5,0020.18,0008.72,0007.33
2023-07-20 07:01:00,SystemResetWarning,0837.8,5.00,000.00,030.8,026.7,000.0,038.9,031.1,34.8,0000.7,0020.46,0008.75,0007.36
2023-07-20 07:02:00,SystemResetWarning,0837.8,5.00,000.00,030.8,027.1,000.0,038.9,031.2,34.8,0000.6,0020.22,0008.80,0007.40
2023-07-20 07:03:00,SystemResetWarning,0837.8,5.00,000.00,030.8,027.3,000.0,038.9,031.2,34.8,0000.6,0019.29,0008.84,0007.43
2023-07-20 07:04:00,SystemResetWarning,0837.8,5.00,000.00,030.8,027.6,000.0,039.0,031.3,34.9,0000.5,0018.86,0008.91,0007.46
2023-07-20 07:05:00,SystemResetWarning,0837.7,5.02,000.00,030.8,027.7,000.0,039.0,031.4,35.0,0000.6,0018.54,0008.91,0007.50
2023-07-20 07:06:00,SystemResetWarning,0837.7,4.99,000.00,031.0,027.9,000.0,039.0,031.5,34.5,0000.4,0018.34,0008.97,0007.54
2023-07-20 07:07:00,SystemResetWarning,0837.7,5.00,000.00,031.1,028.0,000.0,039.0,031.5,34.0,0000.4,0017.95,0008.97,0007.56
2023-07-20 07:08:00,SystemResetWarning,0837.7,5.01,000.00,031.1,028.2,000.0,039.0,031.6,33.9,0000.0,0017.61,0008.96,0007.55
2023-07-20 07:09:00,SystemResetWarning,0837.7,5.00,000.00,031.2,028.3,000.0,039.1,031.6,33.8,0000.2,0017.60,0008.95,0007.56
2023-07-20 07:10:00,SystemResetWarning,0837.7,5.00,000.00,031.2,028.3,000.0,039.1,031.6,33.8,0000.8,0018.35,0008.92,0007.59
2023-07-20 07:11:00,SystemResetWarning,0837.7,5.00,000.00,031.2,028.4,000.0,039.1,031.7,33.8,0001.4,0019.94,0008.87,0007.60
2023-07-20 07:12:00,SystemResetWarning,0837.6,4.99,000.00,031.2,027.8,000.0,039.1,031.6,33.9,0001.5,0019.60,0008.86,0007.62
2023-07-20 07:13:00,SystemResetWarning,0837.6,5.00,000.00,031.2,026.2,000.0,039.0,031.4,33.9,0001.8,0020.02,0008.90,0007.62
2023-07-20 07:14:00,SystemResetWarning,0837.6,5.01,000.00,031.1,025.5,000.0,038.9,031.2,34.1,0001.9,0021.04,0008.96,0007.65
2023-07-20 07:15:00,SystemResetWarning,0837.6,5.01,000.00,030.9,025.6,000.0,038.9,031.0,34.5,0001.7,0021.23,0008.96,0007.68
2023-07-20 07:16:00,SystemResetWarning,0837.6,5.00,000.00,030.8,026.0,000.0,039.0,031.0,34.7,0001.8,0021.46,0008.98,0007.68
2023-07-20 07:17:00,SystemResetWarning,0837.6,5.00,000.00,030.7,026.4,000.0,039.0,031.1,34.8,0001.7,0021.28,0009.00,0007.67
2023-07-20 07:18:00,SystemResetWarning,0837.6,5.00,000.00,030.7,026.7,000.0,039.0,031.1,34.8,0001.5,0020.62,0009.03,0007.66
2023-07-20 07:19:00,SystemResetWarning,0837.6,5.00,000.00,030.7,027.1,000.0,039.0,031.2,34.9,0001.6,0020.59,0009.07,0007.66
2023-07-20 07:20:00,SystemResetWarning,0837.6,5.00,000.00,030.6,027.3,000.0,039.0,031.2,34.9,0001.2,0020.74,0009.04,0007.64
2023-07-20 07:21:00,SystemResetWarning,0837.7,4.99,000.00,030.6,027.6,000.0,039.0,031.3,34.9,0000.8,0019.89,0009.04,0007.61
2023-07-20 07:22:00,SystemResetWarning,0837.6,4.99,000.00,030.6,027.7,000.0,039.0,031.3,34.9,0000.4,0018.37,0009.02,0007.59
2023-07-20 07:23:00,SystemResetWarning,0837.6,4.98,000.00,030.6,027.9,000.0,038.9,031.4,35.0,-000.0,0018.49,0009.03,0007.57
2023-07-20 07:24:00,SystemResetWarning,0837.7,5.03,000.00,030.7,028.0,000.0,038.9,031.4,35.1,-000.1,0018.16,0008.99,0007.53
2023-07-20 07:25:00,SystemResetWarning,0837.7,4.99,000.00,030.9,028.1,000.0,038.9,031.6,34.8,-000.3,0018.00,0008.94,0007.48
2023-07-20 07:26:00,SystemResetWarning,0837.7,5.01,000.00,031.0,028.2,000.0,038.9,031.6,34.5,-000.1,0018.02,0008.90,0007.43
2023-07-20 07:27:00,SystemResetWarning,0837.7,5.00,000.00,031.1,028.3,000.0,039.0,031.7,34.3,-000.4,0018.13,0008.87,0007.41
2023-07-20 07:28:00,SystemResetWarning,0837.7,4.98,000.00,031.2,028.4,000.0,039.0,031.7,34.3,-000.6,0017.56,0008.78,0007.38
2023-07-20 07:29:00,SystemResetWarning,0837.7,5.01,000.00,031.2,028.5,000.0,039.1,031.7,34.1,-000.6,0017.37,0008.74,0007.38
2023-07-20 07:30:00,SystemResetWarning,0837.7,5.00,000.00,031.2,028.1,000.0,039.1,031.7,33.9,-001.0,0016.94,0008.72,0007.39
2023-07-20 07:31:00,SystemResetWarning,0837.7,4.99,000.00,031.2,026.4,000.0,039.0,031.6,33.8,-000.7,0016.78,0008.75,0007.41
2023-07-20 07:32:00,SystemResetWarning,0837.7,5.01,000.00,031.2,025.6,000.0,038.9,031.3,34.1,-000.5,0017.08,0008.77,0007.42
2023-07-20 07:33:00,SystemResetWarning,0837.7,5.01,000.00,031.0,025.6,000.0,038.9,031.0,34.2,-000.4,0018.05,0008.83,0007.46
2023-07-20 07:34:00,SystemResetWarning,0837.7,5.00,000.00,030.9,025.9,000.0,039.0,031.0,34.3,-000.3,0018.29,0008.85,0007.47
2023-07-20 07:35:00,SystemResetWarning,0837.7,5.00,000.00,030.8,026.3,000.0,039.0,031.1,34.1,-000.5,0018.17,0008.85,0007.49
2023-07-20 07:36:00,SystemResetWarning,0837.7,5.00,000.00,030.7,026.7,000.0,039.0,031.1,34.1,-000.6,0018.44,0008.88,0007.51
2023-07-20 07:37:00,SystemResetWarning,0837.8,5.00,000.00,030.7,027.0,000.0,039.0,031.2,34.1,-000.4,0018.16,0008.89,0007.53
2023-07-20 07:38:00,SystemResetWarning,0837.8,4.99,000.00,030.7,027.3,000.0,039.0,031.3,34.0,-000.2,0017.80,0008.89,0007.54
2023-07-20 07:39:00,SystemResetWarning,0837.8,5.00,000.00,030.7,027.5,000.0,039.0,031.3,33.8,-000.0,0018.03,0008.88,0007.54
2023-07-20 07:40:00,SystemResetWarning,0837.8,5.01,000.00,030.6,027.7,000.0,039.0,031.3,33.8,-000.2,0018.86,0008.87,0007.57
2023-07-20 07:41:00,SystemResetWarning,0837.8,5.00,000.00,030.6,027.9,000.0,039.0,031.4,33.6,-000.2,0019.32,0008.87,0007.58
2023-07-20 07:42:00,SystemResetWarning,0837.8,5.00,000.00,030.6,028.0,000.0,039.0,031.4,33.0,0000.1,0019.93,0008.88,0007.56
2023-07-20 07:43:00,SystemResetWarning,0837.8,4.99,000.00,030.6,028.1,000.0,039.0,031.4,32.7,0000.0,0020.16,0008.94,0007.57
2023-07-20 07:44:00,SystemResetWarning,0837.8,5.00,000.00,030.6,028.2,000.0,039.0,031.5,32.9,-000.2,0020.80,0008.96,0007.55
2023-07-20 07:45:00,SystemResetWarning,0837.8,5.00,000.00,030.6,028.3,000.0,038.9,031.5,32.9,-000.4,0020.67,0008.92,0007.54
2023-07-20 07:46:00,SystemResetWarning,0837.8,5.00,000.00,030.6,028.4,000.0,038.9,031.5,32.8,-000.2,0020.49,0008.92,0007.53
2023-07-20 07:47:00,SystemResetWarning,0837.8,5.00,000.00,030.6,028.5,000.0,039.0,031.6,32.7,-000.1,0019.10,0008.81,0007.49
2023-07-20 07:48:00,SystemResetWarning,0837.8,5.00,000.00,030.6,028.2,000.0,038.9,031.6,32.5,-000.2,0018.92,0008.78,0007.46
2023-07-20 07:49:00,SystemResetWarning,0837.8,4.98,000.00,030.6,026.5,000.0,038.8,031.4,32.4,-000.4,0019.24,0008.78,0007.43
2023-07-20 07:50:00,SystemResetWarning,0837.7,5.01,000.00,030.5,025.6,000.0,038.7,031.2,32.2,-000.4,0019.80,0008.78,0007.40
2023-07-20 07:51:00,SystemResetWarning,0837.7,5.01,000.00,030.3,025.5,000.0,038.7,030.8,32.4,-000.2,0019.68,0008.77,0007.32
2023-07-20 07:52:00,SystemResetWarning,0837.7,5.00,000.00,030.2,025.8,000.0,038.7,030.8,32.1,0000.0,0019.54,0008.69,0007.25
2023-07-20 07:53:00,SystemResetWarning,0837.7,5.00,000.00,030.1,026.2,000.0,038.7,030.9,32.3,-000.3,0018.91,0008.59,0007.20
2023-07-20 07:54:00,SystemResetWarning,0837.6,5.00,000.00,030.1,026.6,000.0,038.7,031.0,32.4,-000.0,0018.36,0008.42,0007.11
2023-07-20 07:55:00,SystemResetWarning,0837.6,5.01,000.00,030.1,027.0,000.0,038.6,031.1,33.3,0000.4,0016.57,0008.26,0007.02
2023-07-20 07:56:00,SystemResetWarning,0837.7,4.99,000.00,030.1,027.2,000.0,038.6,031.1,33.7,0000.6,0015.80,0008.14,0006.93
2023-07-20 07:57:00,SystemResetWarning,0837.6,4.99,000.00,030.1,027.5,000.0,038.6,031.2,33.8,0000.6,0015.54,0008.01,0006.84
2023-07-20 07:58:00,SystemResetWarning,0837.6,5.00,000.00,030.1,027.7,000.0,038.6,031.2,34.4,0000.6,0015.88,0007.99,0006.79
2023-07-20 07:59:00,SystemResetWarning,0837.6,5.01,000.00,030.1,027.9,000.0,038.6,031.3,34.6,0000.4,0015.77,0007.93,0006.72
